FENGYUN 1C DEB

Satellite information

Favourite Embed

Satellite Type and Status

DEBRISIN ORBIT

Key statistics

Satellite FENGYUN 1C DEB at a glance.

Uptime

9613

Days in orbit

Revolutions

≈ 14.1

Per day

Orbit

SSO

Sun Synchronous Orbit

Inclination

98.7

Latest

Satellite identification and parameters

Extended collection of information and parameters for FENGYUN 1C DEB.

Object identification

Identified? True

Debris? True

Object name: FENGYUN 1C DEB

International designator: 1999-025ZX

Object number (NORAD): 30310

Object ID (CCSDS): 30310

Country: PEOPLES REPUBLIC OF CHINA (PRC)

Current information (Y/N): Y

RCS size: SMALL

Orbital parameters

Period: 102.27 minutes

Inclination: 98.6759 deg

SMA: 7244.232 km

Apoapsis: 1040.492 km

Periapsis: 691.702 km

RAAN: 269.344 deg

Eccentricy: 0.02407367

Argument of periapsis: 282.9877 deg

Mean anomaly: 74.4515 deg

Mean motion: 14.08037587 rev/day

Mean motion (dot): 0.00001687 rev/day2

B* drag term: 0.00078053099 1/REarth

Two-line elements (TLE)

Creation date: Sept. 3, 2025, 2:21 a.m.

Reference frame: TEME

Reference center: EARTH

Epoch: Sept. 2, 2025, 8:56 p.m. UTC

TLE line 0: 0 FENGYUN 1C DEB

TLE line 1: 1 30310U 99025ZX 25245.87288310 .00001687 00000-0 78053-3 0 9995

TLE line 2: 2 30310 98.6759 269.3440 0240737 282.9877 74.4515 14.08037587953126

Live tracking on map

Real-time ground track for satellite FENGYUN 1C DEB.

In-orbit conjunctions

A list of the most updated potential collisions computed for object FENGYUN 1C DEB.

Target Orbit TCA Probability of collision Miss distance Type
SL-8 R/B LEO 2025-05-22 21:59:48 0.0002349835 170.0 (m) ROCKET BODY
CZ-6A DEB SSO 2024-07-17 06:30:16 0.0001241884 308.0 (m) DEBRIS

Associated space launch

Chinese polar orbiting meteorological satellite

FENGYUN 1C DEB was lifted into orbit during the mission ‘Long March 4B | Feng Yun 1C’, on board a Long March 4B space rocket.

The launch took place on May 10, 1999, 1:33 a.m. from Launch Complex 7.

For more information about the launch, click the button.

Launch to space Long March 4B | Feng Yun 1C
Long March 4B | Feng Yun 1C

Agency: N/A

Status: Launch Successful

Launch date: May 10, 1999, 1:33 a.m. UTC

Rocket: Long March 4B

Launch pad: Launch Complex 7

Location: Taiyuan Satellite Launch Center, People's Republic of China

...

Latest news about this satellite

There are no fresh news available about this satellite. Check back as we update our databases every day.


Newsletter sign-up

Weekly statistics, charts and insights to help you stay on top of the space industry.